sat.trackr.live / text

‹ back to catalog

STARLINK-34258

NORAD 64211 · 2025-117J

PAYLOAD ACTIVE UNKNOWN

§ Identity

Operator
Country
US
Launch date
2025-05-31
Launch site
AFWTR
Launch vehicle
Mass (kg)
RCS (m²)

Purposes: comms

External: N2YO · Heavens-Above · Gunter

§ Orbital elements

Epoch: 2026-09-20T14:11:17.513088Z

Period
93.85 min
Inclination
53.1579°
Eccentricity
0.0001136
Mean motion
15.34397321 rev/d
Perigee alt
461.9 km
Apogee alt
463.5 km
Semi-major
6,840.8 km
B*
2.7984e-4
RAAN
210.9268°
Arg perigee
95.2599°
Mean anomaly
264.8534°
Rev number
7,441

§ Raw data

STARLINK-342581 64211U 25117J   26263.59117492  .00009089  00000+0  27984-3 0  99952 64211  53.1579 210.9268 0001136  95.2599 264.8534 15.34397321 74410

JSON: /api/v1/satellites/64211 · /tle

For live sub-satellite position, see the globe view (requires WebGL).

§ Visibility from observer

Set your observer location to see the next 7 days of passes ≥ 10°. The values pass through the URL so the page stays shareable.

No JS? Fill the form by hand. The geolocation button needs JavaScript.